Location: Colebrook
(42.0017°N, 73.0973°W)
Time: 22:26:29
(UTC-04:00)

N. Korean satellite - Pass Details

Date: 01 October 2021
Orbit: 450 x 495 km, 97.3° (Epoch: 22 October)

Event Time Altitude Azimuth Distance (km) Brightness Sun altitude
Rises 06:07:34 0° 12° (NNE) 2,549 10.4 -8.6°
Reaches altitude 10° 06:09:38 10° 14° (NNE) 1,672 9.5 -8.3°
Maximum altitude 06:13:14 82° 101° (ESE) 498 6.7 -7.6°
Drops below altitude 10° 06:16:51 10° 190° (S) 1,678 9.2 -6.9°
Sets 06:18:55 0° 191° (SSW) 2,559 10.1 -6.5°
